This demonstration page uses our WeatherBlox Daily Observations layout. Learn more.

Left ArrowRight Arrow

34.74481, -87.66753

Hourly Observations for March 23, 2022

Temp ( °F °C ) Dew Point ( °F °C ) Humidity (%) Winds ( mph kmh ) Pressure ( in mb ) Visibility ( mi km ) Precip ( " mm )
12:08 am 00:08 Mostly Cloudy 62 16.7 60 15.6 93 93 W 5 7 29.69 1006 10 16 0.00 0.00
12:16 am 00:16 Cloudy 62 16.7 60 15.6 93 93 S 5 7 29.69 1006 10 16 0.00 0.00
12:36 am 00:36 Cloudy 62 16.7 60 15.6 93 93 SSE 5 7 29.68 1005 10 16 0.00 0.00
12:53 am 00:53 Cloudy 62 16.7 60 15.6 93 93 SSE 5 7 29.67 1005 10 16 0.00 0.00
1:53 am 01:53 Cloudy 62 16.7 59 15 90 90 SE 6 9 29.65 1004 10 16 0.00 0.00
2:22 am 02:22 Cloudy 62 16.7 59 15 90 90 S 6 9 29.65 1004 10 16 0.00 0.00
2:53 am 02:53 Cloudy 62 16.7 59 15 90 90 S 5 7 29.64 1004 10 16 0.00 0.00
3:53 am 03:53 Cloudy 61 16.1 59 15 93 93 SSW 3 6 29.62 1003 10 16 0.00 0.00
4:00 am 04:00 Cloudy 61 16.1 59 15 93 93 SW 3 6 29.64 1004 10 16 0.00 0.00
4:37 am 04:37 Cloudy 61 16.1 56 13.3 84 84 WSW 9 15 29.65 1004 10 16 0.00 0.00
4:53 am 04:53 Cloudy 60 15.6 55 12.8 84 84 WSW 9 15 29.64 1004 10 16 0.00 0.00
5:53 am 05:53 Mostly Cloudy 58 14.4 54 12.2 87 87 WSW 9 15 29.65 1004 10 16 0.00 0.00
6:53 am 06:53 Sunny 56 13.3 53 11.7 90 90 SSW 7 11 29.65 1004 10 16 0.00 0.00
7:27 am 07:27 Mostly Cloudy 57 13.9 54 12.2 90 90 SSW 7 11 29.68 1005 10 16 0.00 0.00
7:53 am 07:53 Mostly Cloudy 58 14.4 54 12.2 87 87 SSW 9 15 29.68 1005 10 16 0.00 0.00
8:03 am 08:03 Partly Cloudy 58 14.4 54 12.2 87 87 SSW 9 15 29.69 1005 10 16 0.00 0.00
8:48 am 08:48 Cloudy 59 15 54 12 82 82 SW 15 24 29.69 1005 10 16 0.00 0.00
8:53 am 08:53 Cloudy 59 15 53 11.7 81 81 WSW 12 19 29.68 1005 10 16 0.00 0.00
9:13 am 09:13 Cloudy 58 14.4 51 10.6 78 78 SW 17 28 29.70 1006 10 16 0.00 0.00
9:35 am 09:35 Cloudy 58 14.4 50 10 75 75 SW 17 28 29.70 1006 10 16 0.00 0.00
9:53 am 09:53 Cloudy 57 13.9 50 10 78 78 SW 13 20 29.70 1006 10 16 0.00 0.00
10:53 am 10:53 Cloudy 54 12.2 48 8.9 80 80 WSW 20 31 29.72 1006 10 16 0.00 0.00
11:53 am 11:53 Cloudy 54 12.2 46 7.8 75 75 SSW 17 28 29.74 1007 10 16 0.00 0.00
12:44 pm 12:44 Cloudy 55 12.8 45 7.2 69 69 W 17 28 29.77 1008 10 16 0.00 0.00
12:53 pm 12:53 Cloudy 55 12.8 44 6.7 67 67 WSW 21 33 29.76 1008 10 16 0.00 0.00
1:53 pm 13:53 Cloudy 54 12.2 41 5 62 62 WSW 21 33 29.78 1009 10 16 0.00 0.00
2:53 pm 14:53 Cloudy 55 12.8 41 5 59 59 SW 17 28 29.78 1009 10 16 0.00 0.00
3:53 pm 15:53 Cloudy 54 12.2 40 4.4 59 59 WSW 14 22 29.80 1009 10 16 0.00 0.00
4:53 pm 16:53 Cloudy 53 11.7 40 4.4 61 61 SW 16 26 29.83 1010 10 16 0.00 0.00
5:53 pm 17:53 Cloudy 52 11.1 40 4.4 64 64 WSW 10 17 29.86 1011 10 16 0.00 0.00
6:53 pm 18:53 Cloudy 52 11.1 40 4.4 64 64 WSW 13 20 29.88 1012 10 16 0.00 0.00
7:53 pm 19:53 Cloudy 51 10.6 40 4.4 66 66 SW 12 19 29.91 1013 10 16 0.00 0.00
8:53 pm 20:53 Cloudy 51 10.6 40 4.4 66 66 W 13 20 29.93 1014 10 16 0.00 0.00
9:53 pm 21:53 Cloudy 50 10 39 3.9 66 66 W 7 11 29.94 1014 10 16 0.00 0.00
10:53 pm 22:53 Clear 47 8.3 38 3.3 71 71 SSW 5 7 29.95 1014 10 16 0.00 0.00
11:53 pm 23:53 Clear 45 7.2 39 3.9 80 80 S 3 6 29.95 1014 10 16 0.00 0.00

Powered by AerisWeather